sat.trackr.live / text

‹ back to catalog

STARLINK-11165 [DTC]

NORAD 60063 · 2024-113E

PAYLOAD ACTIVE UNKNOWN

§ Identity

Operator
Country
US
Launch date
2024-06-19
Launch site
AFWTR
Launch vehicle
Mass (kg)
RCS (m²)

Purposes: comms

External: N2YO · Heavens-Above · Gunter

§ Orbital elements

Epoch: 2026-05-24T12:39:04.416480Z

Period
91.74 min
Inclination
53.1584°
Eccentricity
0.0000971
Mean motion
15.69707481 rev/d
Perigee alt
359.1 km
Apogee alt
360.4 km
Semi-major
6,737.9 km
B*
-4.1284e-6
RAAN
177.2642°
Arg perigee
71.2587°
Mean anomaly
288.8537°
Rev number
11,147

§ Raw data

STARLINK-11165 [DTC]1 60063U 24113E   26144.52713445 -.00001088  00000+0 -41284-5 0  99962 60063  53.1584 177.2642 0000971  71.2587 288.8537 15.69707481111472

JSON: /api/v1/satellites/60063 · /tle

For live sub-satellite position, see the globe view (requires WebGL).

§ Visibility from observer

Set your observer location to see the next 7 days of passes ≥ 10°. The values pass through the URL so the page stays shareable.

No JS? Fill the form by hand. The geolocation button needs JavaScript.